"Pseudo-MPEC" for scax015

Created 2023 Apr 20 17:22:17 UT using Find_Orb

Click here for an explanation of pseudo-MPECs

 
 Astrometry: 
     scax015*KC2023 03 29(B`^cAstrometryYdu1CYIGF1*F+(+l\v[2,J@dSbKkY4KC/6gC`L92
     scax015 KC2023 03 294iqriVOH\%)T7i%WT2t%#Sm(v#?=Y+CP#3,#._A7n2siZ_=9J-EGL92
     scax015 KC2023 03 29dddCJredacted;aMMt3QjAj12^C81gMp^@3/M2Vkvt/sDqLEg#6bL92
     scax015 KC2023 03 29m!tRyclickfcfm4J4!Y;3i-c636hYWEI?9JmEIYbi'vn;w'Vdq=ML92
     scax015 KC2023 03 29iZc+mSN0sOOfTB1#VtG]J;RHBb2m:\`#B-WphAC=q0KmuOIov`@kL92
     scax015 KC2023 03 298B3!.['qA9N7cX-4)q_wlha6/S2wTtX5wO0WC_n,UmC0d]a1KaMjL92
     scax015 KC2023 03 29HchereSforVuPdobF8d#[#KAYR5VS9#?kcA.w]Ga-/;SGW\)($4mL92
     scax015 KC2023 03 29sPf-?+L0HGseDV2_cu!=w[tYV7[k*.A+N)J4/4\V-explanationL92

Station data:
(L92) San Costantino  (N38.705391 E16.002110)  Italy.  Observer T. Scarmato.
   0.25-m Newtonian reflector + CCD.

Orbital elements:  scax015
   Perihelion 2023 Mar 29.55368 TT = 13:17:18 (JD 2460033.05368)
Epoch 2023 Mar 30.0 TT = JDT 2460033.5   Earth MOID: 0.0000   Ju: 0.3677
q   0.99643741                      Ma: 0.0486   Sa: 0.7474      AutoNEOCP
H   23.78 G 0.15   Peri.  176.34714
                   Node     8.63586
e 111.3752720      Incl.    4.20817                       (J2000 ecliptic)
From 8 observations 2023 Mar. 29 (46.9 min); mean residual 0".00
Residuals in arcseconds: 
230329 L92  .00   .00     230329 L92  .00   .00     230329 L92  .00   .00     
230329 L92  .00   .00     230329 L92  .00   .00     230329 L92  .00   .00     
230329 L92  .00   .00     230329 L92  .00   .00     

Ephemerides (geocentric):
Date (UTC) HH   RA             Dec           delta  r     elong  mag
---- --------  ------------   ------------  ------ ------ -----  ---
2023 04 20 17  18 18 15.998   -27 59 54.01  3.6022 4.1410 115.9 30.4
2023 04 20 18  18 18 15.502   -27 59 54.04  3.6092 4.1483 115.9 30.5
2023 04 20 19  18 18 15.006   -27 59 54.06  3.6161 4.1556 116.0 30.5
2023 04 20 20  18 18 14.510   -27 59 54.08  3.6230 4.1629 116.0 30.5
2023 04 20 21  18 18 14.014   -27 59 54.10  3.6299 4.1703 116.1 30.5
2023 04 20 22  18 18 13.517   -27 59 54.12  3.6368 4.1776 116.1 30.5
2023 04 20 23  18 18 13.021   -27 59 54.14  3.6437 4.1849 116.2 30.5
2023 04 21 00  18 18 12.525   -27 59 54.17  3.6506 4.1923 116.2 30.5
2023 04 21 01  18 18 12.029   -27 59 54.19  3.6575 4.1996 116.2 30.5
2023 04 21 02  18 18 11.532   -27 59 54.21  3.6644 4.2069 116.3 30.5
2023 04 21 03  18 18 11.036   -27 59 54.22  3.6713 4.2143 116.3 30.5
2023 04 21 04  18 18 10.539   -27 59 54.24  3.6782 4.2216 116.4 30.5
2023 04 21 05  18 18 10.043   -27 59 54.26  3.6851 4.2289 116.4 30.5
2023 04 21 06  18 18 09.546   -27 59 54.28  3.6920 4.2363 116.5 30.5
2023 04 21 07  18 18 09.049   -27 59 54.30  3.6990 4.2436 116.5 30.5
2023 04 21 08  18 18 08.553   -27 59 54.31  3.7059 4.2510 116.5 30.5
2023 04 21 09  18 18 08.056   -27 59 54.33  3.7128 4.2583 116.6 30.6
2023 04 21 10  18 18 07.559   -27 59 54.35  3.7197 4.2656 116.6 30.6
2023 04 21 11  18 18 07.062   -27 59 54.36  3.7266 4.2730 116.7 30.6
2023 04 21 12  18 18 06.565   -27 59 54.38  3.7335 4.2803 116.7 30.6
2023 04 21 13  18 18 06.069   -27 59 54.40  3.7404 4.2877 116.8 30.6
2023 04 21 14  18 18 05.572   -27 59 54.41  3.7473 4.2950 116.8 30.6
2023 04 21 15  18 18 05.075   -27 59 54.42  3.7542 4.3023 116.8 30.6
2023 04 21 16  18 18 04.578   -27 59 54.44  3.7611 4.3097 116.9 30.6
2023 04 21 17  18 18 04.081   -27 59 54.45  3.7680 4.3170 116.9 30.6
2023 04 21 18  18 18 03.583   -27 59 54.47  3.7750 4.3244 117.0 30.6
2023 04 21 19  18 18 03.086   -27 59 54.48  3.7819 4.3317 117.0 30.6
2023 04 21 20  18 18 02.589   -27 59 54.49  3.7888 4.3391 117.0 30.6
2023 04 21 21  18 18 02.092   -27 59 54.50  3.7957 4.3464 117.1 30.6
2023 04 21 22  18 18 01.595   -27 59 54.52  3.8026 4.3538 117.1 30.6
2023 04 21 23  18 18 01.097   -27 59 54.53  3.8095 4.3611 117.2 30.7
2023 04 22 00  18 18 00.600   -27 59 54.54  3.8164 4.3685 117.2 30.7
2023 04 22 01  18 18 00.103   -27 59 54.55  3.8233 4.3758 117.3 30.7
2023 04 22 02  18 17 59.605   -27 59 54.56  3.8303 4.3832 117.3 30.7
2023 04 22 03  18 17 59.108   -27 59 54.57  3.8372 4.3905 117.3 30.7
2023 04 22 04  18 17 58.611   -27 59 54.58  3.8441 4.3979 117.4 30.7
2023 04 22 05  18 17 58.113   -27 59 54.59  3.8510 4.4052 117.4 30.7
2023 04 22 06  18 17 57.616   -27 59 54.59  3.8579 4.4126 117.5 30.7
2023 04 22 07  18 17 57.118   -27 59 54.60  3.8648 4.4199 117.5 30.7
2023 04 22 08  18 17 56.621   -27 59 54.61  3.8717 4.4273 117.6 30.7
2023 04 22 09  18 17 56.123   -27 59 54.62  3.8786 4.4346 117.6 30.7
2023 04 22 10  18 17 55.626   -27 59 54.62  3.8856 4.4420 117.6 30.7
2023 04 22 11  18 17 55.128   -27 59 54.63  3.8925 4.4494 117.7 30.7
2023 04 22 12  18 17 54.631   -27 59 54.64  3.8994 4.4567 117.7 30.7
2023 04 22 13  18 17 54.133   -27 59 54.64  3.9063 4.4641 117.8 30.7
2023 04 22 14  18 17 53.635   -27 59 54.65  3.9132 4.4714 117.8 30.7
2023 04 22 15  18 17 53.138   -27 59 54.65  3.9201 4.4788 117.9 30.8
2023 04 22 16  18 17 52.640   -27 59 54.66  3.9271 4.4862 117.9 30.8